This demonstration page uses our WeatherBlox Daily Observations layout. Learn more.

Left ArrowRight Arrow

38.80484, -77.04692

Hourly Observations for December 28, 2018

Temp ( °F °C ) Dew Point ( °F °C ) Humidity (%) Winds ( mph kmh ) Pressure ( in mb ) Visibility ( mi km ) Precip ( " mm )
12:05 am 00:05 Cloudy with Light Rain 44 6.7 41 5 89 89 E 3 6 30.33 1027 4 6 0.01 0.25
12:19 am 00:19 Cloudy with Light Rain 44 6.7 41 5 89 89 NNE 3 6 30.33 1027 4 6 0.01 0.25
12:34 am 00:34 Cloudy with Mist and Fog 44 6.7 41 5 89 89 NNE 5 7 30.33 1027 3 5 0.01 0.25
12:52 am 00:52 Cloudy with Light Rain 44 6.7 41 5 89 89 N 3 6 30.32 1027 3 5 0.01 0.25
1:01 am 01:01 Cloudy with Light Rain 44 6.7 41 5 89 89 N 3 6 30.33 1027 3 5 0.00 0.03
1:09 am 01:09 Cloudy with Light Rain 44 6.7 42 5.6 93 93 Calm 30.33 1027 3 4 0.00 0.03
1:24 am 01:24 Cloudy with Light Rain 44 6.7 41 5 89 89 N 5 7 30.30 1026 2 3 0.01 0.25
1:52 am 01:52 Cloudy with Light Rain 44 6.7 42 5.6 93 93 NNE 3 6 30.30 1026 2 2 0.02 0.51
2:43 am 02:43 Cloudy with Light Rain 44 6.7 42 5.6 93 93 NE 5 7 30.27 1025 2 3 0.03 0.76
2:52 am 02:52 Cloudy with Light Rain 44 6.7 42 5.6 93 93 NNE 5 7 30.27 1025 3 5 0.03 0.76
3:09 am 03:09 Cloudy with Light Rain 44 6.7 42 5.6 93 93 NE 5 7 30.27 1025 3 4 0.02 0.51
3:18 am 03:18 Cloudy with Light Rain 44 6.7 42 5.6 93 93 NE 7 11 30.24 1024 3 5 0.03 0.76
3:28 am 03:28 Cloudy with Rain 44 6.7 41 5 89 89 NE 8 13 30.24 1024 2 3 0.05 1.27
3:52 am 03:52 Cloudy with Rain 44 6.7 42 5.6 93 93 NNE 6 9 30.22 1023 3 5 0.10 2.54
4:06 am 04:06 Cloudy with Rain 44 6.7 42 5.6 93 93 NNE 7 11 30.21 1023 4 6 0.02 0.51
4:20 am 04:20 Cloudy with Rain 44 6.7 42 5.6 93 93 NNE 6 9 30.21 1023 4 6 0.05 1.27
4:52 am 04:52 Cloudy with Rain 44 6.7 42 5.6 93 93 NNE 6 9 30.19 1022 4 6 0.13 3.30
5:52 am 05:52 Cloudy with Light Rain 45 7.2 42 5.6 90 90 N 6 9 30.15 1021 5 8 0.08 2.03
6:52 am 06:52 Cloudy with Heavy Rain 46 7.8 44 6.7 93 93 NNW 5 7 30.13 1020 3 4 0.10 2.54
7:08 am 07:08 Cloudy with Rain 47 8.3 44 6.7 90 90 VRB 3 6 30.09 1019 3 5 0.05 1.27
7:34 am 07:34 Cloudy with Heavy Rain 47 8.3 45 7.2 93 93 N 3 6 30.09 1019 2 3 0.10 2.54
7:52 am 07:52 Cloudy with Rain 47 8.3 45 7.2 93 93 Calm 30.09 1019 3 5 0.17 4.32
7:59 am 07:59 Cloudy with Light Rain 46 7.8 44 6.7 93 93 NNE 3 6 30.09 1019 2 3 0.01 0.25
8:01 am 08:01 Cloudy with Rain 46 7.8 44 6.7 93 93 N 3 6 30.09 1019 1 2 0.01 0.25
8:08 am 08:08 Cloudy with Rain 47 8.3 44 6.7 90 90 Calm 30.09 1019 1 1 0.04 1.02
8:20 am 08:20 Cloudy with Light Rain 47 8.3 45 7.2 93 93 Calm 30.09 1019 1 2 0.04 1.02
8:52 am 08:52 Cloudy with Light Rain 49 9.4 46 7.8 90 90 WNW 6 9 30.09 1019 1 2 0.06 1.52
9:52 am 09:52 Cloudy with Light Rain 49 9.4 46 7.8 90 90 Calm 30.06 1018 1 2 0.07 1.78
10:22 am 10:22 Cloudy with Light Rain 50 10 48 8.9 93 93 W 3 6 30.06 1018 3 5 0.09 2.29
10:31 am 10:31 Cloudy with Light Rain 50 10 47 8.3 89 89 W 3 6 30.06 1018 4 6 0.09 2.29
10:40 am 10:40 Cloudy with Light Rain 50 10 47 8.3 89 89 Calm 30.06 1018 5 8 0.09 2.29
10:52 am 10:52 Cloudy with Light Rain 48 8.9 44 6.7 86 86 Calm 30.04 1017 6 10 0.09 2.29
11:08 am 11:08 Cloudy with Light Rain 48 8.9 45 7.2 89 89 SSE 6 9 30.03 1017 6 10 0.01 0.25
11:52 am 11:52 Cloudy with Light Rain 50 10 47 8.3 89 89 SSW 8 13 29.99 1016 4 6 0.07 1.78
12:02 pm 12:02 Cloudy with Light Rain 50 10 48 8.9 93 93 S 5 7 30.00 1016 6 10 0.01 0.25
12:11 pm 12:11 Cloudy with Light Rain 50 10 48 8.9 93 93 Calm 30.00 1016 6 10 0.01 0.25
12:46 pm 12:46 Cloudy with Light Rain 48 9 46 8 94 94 Calm 29.97 1015 3 4 0.03 0.76
12:52 pm 12:52 Cloudy with Light Rain 50 10 47 8.3 89 89 SE 3 6 29.97 1015 3 4 0.03 0.76
1:08 pm 13:08 Cloudy with Light Rain 51 10.6 49 9.4 92 92 Calm 29.97 1015 4 6 0.00 0.03
1:30 pm 13:30 Cloudy with Light Rain 51 10.6 49 9.4 92 92 Calm 29.94 1014 7 11 0.00 0.03
1:52 pm 13:52 Cloudy with Light Rain 52 11.1 50 10 93 93 S 6 9 29.94 1014 7 11 0.01 0.25
2:52 pm 14:52 Cloudy with Light Rain 52 11.1 49 9.4 89 89 ESE 6 9 29.94 1014 6 10 0.03 0.76
3:21 pm 15:21 Cloudy with Light Rain 52 11.1 50 10 93 93 SSE 6 9 29.94 1014 6 10 0.01 0.25
3:52 pm 15:52 Cloudy with Light Rain 54 12.2 52 11.1 93 93 SSE 10 17 29.86 1011 10 16 0.03 0.76
4:08 pm 16:08 Cloudy 55 12.8 53 11.7 93 93 W 13 20 29.91 1013 10 16 0.00 0.03
4:34 pm 16:34 Cloudy with Mist and Fog 54 12.2 51 10.6 90 90 W 8 13 29.91 1013 6 10 0.00 0.03
4:52 pm 16:52 Mostly Cloudy with Mist and Fog 53 11.7 51 10.6 93 93 SSE 8 13 29.85 1011 4 6 0.00 0.03
5:11 pm 17:11 Cloudy 56 13.3 54 12.2 93 93 WNW 8 13 29.94 1014 10 16 0.00 0.00
5:52 pm 17:52 Cloudy 57 13.9 53 11.7 87 87 W 6 9 29.96 1015 10 16 0.00 0.00
6:17 pm 18:17 Cloudy with Mist and Fog 53 11.7 50 10 89 89 E 5 7 29.94 1014 6 10 0.00 0.00
6:52 pm 18:52 Cloudy with Mist and Fog 53 11.7 51 10.6 93 93 Calm 29.91 1013 6 10 0.00 0.00
7:27 pm 19:27 Cloudy with Fog 51 10.6 49 9.4 92 92 Calm 29.91 1013 0 0 0.00 0.00
7:30 pm 19:30 Cloudy with Mist and Fog 51 10.6 49 9.4 92 92 Calm 29.91 1013 2 3 0.00 0.00
7:52 pm 19:52 Cloudy 54 12.2 52 11.1 93 93 Calm 29.91 1013 7 11 0.00 0.00
7:54 pm 19:54 Cloudy with Mist and Fog 53 11.7 52 11.1 96 96 Calm 29.91 1013 6 10 0.00 0.00
8:02 pm 20:02 Cloudy with Mist and Fog 52 11.1 50 10 93 93 Calm 29.91 1013 2 3 0.00 0.00
8:30 pm 20:30 Mostly Cloudy with Fog 52 11.1 51 10.6 97 97 S 7 11 29.91 1013 0 0 0.00 0.00
8:34 pm 20:34 Mostly Cloudy with Fog 52 11.1 50 10 93 93 S 6 9 29.91 1013 0 0 0.00 0.00
8:52 pm 20:52 Mostly Cloudy with Fog 52 11.1 50 10 93 93 S 7 11 29.91 1013 0 0 0.00 0.00
9:20 pm 21:20 Mostly Cloudy with Fog 53 11.7 52 11.1 96 96 SSW 6 9 29.91 1013 0 0 0.00 0.00
9:52 pm 21:52 Mostly Cloudy with Mist and Fog 54 12.2 53 11.7 97 97 SSW 7 11 29.92 1013 1 2 0.00 0.00
9:57 pm 21:57 Cloudy with Mist and Fog 54 12.2 53 11.7 97 97 SSW 5 7 29.91 1013 3 5 0.00 0.00
10:02 pm 22:02 Cloudy 54 12.2 53 11.7 97 97 SSW 6 9 29.91 1013 8 13 0.00 0.00
10:37 pm 22:37 Cloudy 54 12.2 52 11.1 93 93 SSW 5 7 29.91 1013 10 16 0.00 0.00
10:52 pm 22:52 Cloudy 54 12.2 52 11.1 93 93 SSW 6 9 29.91 1013 10 16 0.00 0.00
11:15 pm 23:15 Partly Cloudy 53 11.7 51 10.6 93 93 SSW 5 7 29.91 1013 10 16 0.00 0.00
11:49 pm 23:49 Cloudy 54 12 52 11 94 94 S 6 9 29.91 1013 10 16 0.00 0.00
11:52 pm 23:52 Cloudy 52 11.1 51 10.6 97 97 S 5 7 29.91 1013 10 16 0.00 0.00

Powered by AerisWeather